TimeAEDT,TemperatureF,Dew PointF,Humidity,Sea Level PressureIn,VisibilityMPH,Wind Direction,Wind SpeedMPH,Gust SpeedMPH,PrecipitationIn,Events,Conditions,WindDirDegrees,DateUTC
12:00 AM,51,48,87,30.34,,North,4.6,,,,,0,2012-11-11 13:00:00
12:00 AM,51.8,48.2,88,30.33,6.2,North,4.6,-,N/A,,Unknown,360,2012-11-11 13:00:00
12:30 AM,50.0,48.2,94,30.33,6.2,Calm,Calm,-,N/A,,Unknown,0,2012-11-11 13:30:00
1:00 AM,48.2,46.4,93,30.30,6.2,Calm,Calm,-,N/A,,Unknown,0,2012-11-11 14:00:00
1:30 AM,50.0,48.2,94,30.30,6.2,Calm,Calm,-,N/A,,Scattered Clouds,0,2012-11-11 14:30:00
2:00 AM,49,48,95,30.30,,NW,3.5,,,,,310,2012-11-11 15:00:00
2:00 AM,50.0,48.2,94,30.30,6.2,NW,3.5,-,N/A,,Scattered Clouds,310,2012-11-11 15:00:00
2:30 AM,48.2,46.4,93,30.27,6.2,Calm,Calm,-,N/A,,Unknown,0,2012-11-11 15:30:00
3:00 AM,48,46,89,30.29,,Calm,Calm,,,,,,2012-11-11 16:00:00
3:00 AM,48.2,46.4,93,30.27,6.2,Calm,Calm,-,N/A,,Unknown,0,2012-11-11 16:00:00
3:30 AM,48.2,46.4,93,30.27,6.2,Calm,Calm,-,N/A,,Unknown,0,2012-11-11 16:30:00
4:00 AM,46.4,44.6,93,30.27,6.2,Calm,Calm,-,N/A,,Unknown,0,2012-11-11 17:00:00
4:30 AM,46.4,44.6,93,30.27,6.2,Calm,Calm,-,N/A,,Unknown,0,2012-11-11 17:30:00
5:00 AM,47,46,95,30.27,,Calm,Calm,,,,,,2012-11-11 18:00:00
5:00 AM,46.4,46.4,100,30.24,6.2,Calm,Calm,-,N/A,,Unknown,0,2012-11-11 18:00:00
5:30 AM,46.4,46.4,100,30.24,6.2,Calm,Calm,-,N/A,,Unknown,0,2012-11-11 18:30:00
6:00 AM,46.4,44.6,93,30.27,6.2,Calm,Calm,-,N/A,Fog,Partly Cloudy,0,2012-11-11 19:00:00
6:30 AM,48.2,46.4,93,30.27,6.2,Calm,Calm,-,N/A,Fog,Partly Cloudy,0,2012-11-11 19:30:00
7:00 AM,51.8,50.0,94,30.27,-9999.0,Calm,Calm,-,N/A,,Clear,0,2012-11-11 20:00:00
7:30 AM,57.2,53.6,88,30.27,-9999.0,Calm,Calm,-,N/A,,Clear,0,2012-11-11 20:30:00
8:00 AM,61,54,71,30.30,,Calm,Calm,,,,,,2012-11-11 21:00:00
8:00 AM,60.8,53.6,77,30.27,6.2,Calm,Calm,-,N/A,,Partly Cloudy,0,2012-11-11 21:00:00
8:30 AM,64.4,50.0,59,30.27,6.2,North,8.1,-,N/A,,Partly Cloudy,360,2012-11-11 21:30:00
9:00 AM,67,48,40,30.29,,North,10.4,,,,,10,2012-11-11 22:00:00
9:00 AM,68.0,48.2,49,30.27,6.2,North,10.4,-,N/A,,Partly Cloudy,10,2012-11-11 22:00:00
9:30 AM,68.0,46.4,46,30.27,6.2,NNE,11.5,-,N/A,,Partly Cloudy,20,2012-11-11 22:30:00
10:00 AM,69.8,44.6,40,30.27,6.2,NE,12.7,-,N/A,,Partly Cloudy,40,2012-11-11 23:00:00
10:30 AM,71.6,46.4,41,30.24,6.2,North,6.9,-,N/A,,Partly Cloudy,350,2012-11-11 23:30:00
11:00 AM,73,47,29,30.25,,NNE,5.8,,,,,30,2012-11-12 00:00:00
11:00 AM,73.4,46.4,38,30.24,-9999.0,NNE,5.8,-,N/A,,Clear,30,2012-11-12 00:00:00
11:30 AM,75.2,42.8,31,30.21,6.2,NNE,11.5,-,N/A,,Unknown,30,2012-11-12 00:30:00
12:00 PM,75,42,20,30.21,,NNE,9.2,,,,,30,2012-11-12 01:00:00
12:00 PM,75.2,42.8,31,30.21,-9999.0,NNE,9.2,-,N/A,,Clear,30,2012-11-12 01:00:00
12:30 PM,77.0,42.8,29,30.18,-9999.0,NE,10.4,-,N/A,,Clear,50,2012-11-12 01:30:00
1:00 PM,77.0,42.8,29,30.15,6.2,ENE,11.5,-,N/A,,Unknown,60,2012-11-12 02:00:00
1:30 PM,78.8,42.8,28,30.15,-9999.0,NE,10.4,-,N/A,,Clear,50,2012-11-12 02:30:00
2:00 PM,78,42,18,30.15,,ENE,9.2,,,,,60,2012-11-12 03:00:00
2:00 PM,78.8,42.8,28,30.12,-9999.0,ENE,9.2,-,N/A,,Clear,60,2012-11-12 03:00:00
2:30 PM,78.8,46.4,32,30.12,-9999.0,ESE,17.3,-,N/A,,Clear,110,2012-11-12 03:30:00
3:00 PM,78,48,24,30.12,,East,15.0,,,,,90,2012-11-12 04:00:00
3:00 PM,78.8,48.2,34,30.09,-9999.0,East,15.0,-,N/A,,Clear,90,2012-11-12 04:00:00
3:30 PM,77.0,48.2,36,30.09,-9999.0,ENE,15.0,-,N/A,,Clear,70,2012-11-12 04:30:00
4:00 PM,77.0,50.0,39,30.09,-9999.0,ENE,15.0,-,N/A,,Clear,70,2012-11-12 05:00:00
4:30 PM,77.0,50.0,39,30.09,-9999.0,ENE,15.0,-,N/A,,Clear,70,2012-11-12 05:30:00
5:00 PM,76,51,31,30.09,,ENE,12.7,,,,,70,2012-11-12 06:00:00
5:00 PM,77.0,51.8,41,30.09,-9999.0,ENE,12.7,-,N/A,,Clear,70,2012-11-12 06:00:00
5:30 PM,75.2,51.8,44,30.06,-9999.0,ENE,12.7,-,N/A,,Clear,60,2012-11-12 06:30:00
6:00 PM,74,52,36,30.08,,ENE,13.8,,,,,60,2012-11-12 07:00:00
6:00 PM,73.4,51.8,47,30.06,-9999.0,ENE,13.8,-,N/A,,Clear,60,2012-11-12 07:00:00
6:30 PM,73.4,53.6,50,30.06,-9999.0,NE,13.8,-,N/A,,Clear,50,2012-11-12 07:30:00
7:00 PM,71.6,51.8,50,30.06,-9999.0,ENE,13.8,-,N/A,,Clear,60,2012-11-12 08:00:00
7:30 PM,69.8,51.8,53,30.06,-9999.0,NE,12.7,-,N/A,,Clear,50,2012-11-12 08:30:00
8:00 PM,69,51,42,30.09,,NNE,9.2,,,,,30,2012-11-12 09:00:00
8:00 PM,68.0,51.8,56,30.06,-9999.0,NNE,9.2,-,N/A,,Clear,30,2012-11-12 09:00:00
8:30 PM,68.0,50.0,52,30.06,-9999.0,NE,10.4,-,N/A,,Clear,50,2012-11-12 09:30:00
9:00 PM,67,52,47,30.09,,NE,10.4,,,,,40,2012-11-12 10:00:00
9:00 PM,66.2,51.8,60,30.09,-9999.0,NE,10.4,-,N/A,,Clear,40,2012-11-12 10:00:00
9:30 PM,66.2,51.8,60,30.06,-9999.0,NE,9.2,-,N/A,,Clear,40,2012-11-12 10:30:00
10:00 PM,64.4,53.6,68,30.09,-9999.0,North,6.9,-,N/A,,Clear,10,2012-11-12 11:00:00
10:30 PM,64.4,53.6,68,30.09,6.2,NE,6.9,-,N/A,,Unknown,40,2012-11-12 11:30:00
11:00 PM,64,53,57,30.09,,NNE,6.9,,,,,30,2012-11-12 12:00:00
11:00 PM,64.4,51.8,64,30.06,6.2,NNE,6.9,-,N/A,,Unknown,30,2012-11-12 12:00:00
11:30 PM,64.4,51.8,64,30.06,6.2,NNE,5.8,-,N/A,,Unknown,30,2012-11-12 12:30:00